x

9449880 - Friday Harbor, Wa (frdw1) Weather Station

12:36pm - Mon 30th Mar 2015 All times are PDT. -7 hours from GMT.

  • Wind
    7mph, 13mph gusts
  • Sea Temp 49°f
  • 空気 Temp 55°f
  • Sea Pressure 1016.3mb
  • 9449880 - Friday Harbor, Wa
  • 9449880 - Friday Harbor, Wa

More Historic Weather Station data

Upgrade to MSW Pro to gain access to the past 30 days of data for over 8000 Wavebouys and Weather Stations around the globe.

Join Pro

Comparision Forecast

View Surf forecast
   
Mon 03/30 12:36pm 7 13 mph 1016.3mb 49f 55f
12:30pm 8 10 mph 1016.3mb 49f 55f
12:24pm 7 11 mph 1016.3mb 49f 55f
12:18pm 6 8 mph 1016.4mb 49f 55f
12:12pm 8 13 mph 1016.5mb 49f 55f
12:06pm 7 10 mph 1016.6mb 49f 55f
12:00pm 6 9 mph 1016.6mb 49f 55f
11:36am 6 10 mph 1016.7mb 49f 55f
11:30am 6 8 mph 1016.7mb 49f 55f
11:24am 5 7 mph 1016.7mb 49f 54f
11:18am 5 7 mph 1016.7mb 49f 54f
11:12am 5 7 mph - - 54f
11:06am 5 8 mph 1016.8mb 49f 54f
11:00am 7 8 mph 1016.8mb 49f 54f
10:36am 5 6 mph 1017mb 49f 53f
10:30am 3 7 mph 1017.1mb 49f 53f
10:24am 3 6 mph 1017.1mb 49f 53f
10:18am 5 7 mph 1017.1mb 49f 53f
10:12am 3 5 mph 1017.1mb 49f 53f
10:06am 3 7 mph 1017.2mb 49f 53f
10:00am 5 6 mph 1017.2mb 49f 53f
9:36am 6 7 mph 1017.3mb 49f 53f
9:30am 2 6 mph 1017.3mb 49f 53f
9:24am 3 5 mph 1017.2mb 49f 53f
9:18am 1 5 mph 1017.2mb 49f 53f
9:12am 5 6 mph 1017.2mb 49f 53f
9:06am 3 6 mph 1017.3mb 49f 53f
9:00am 2 6 mph 1017.3mb 49f 53f
8:36am  -  1 mph 1017.2mb 49f 52f
8:30am  -  2 mph 1017.3mb 49f 52f
8:24am  -  1 mph 1017.2mb 49f 52f
8:18am  -  3 mph 1017.3mb 49f 52f
8:12am 1 3 mph 1017.3mb 49f 52f
8:06am 1 3 mph 1017.3mb 49f 52f
8:00am  -  1 mph 1017.3mb 49f 51f
7:30am  -  mph 1017.3mb 49f -
7:18am  -  mph 1017.3mb 49f -
6:24am  -  mph 1017.9mb 49f -
6:18am  -  mph 1017.9mb 49f -
6:12am  -  mph 1017.9mb 49f -
6:06am  -  mph 1018mb 49f -
6:00am  -  mph 1018mb 49f -
5:36am  -  1 mph 1018mb 49f 52f
5:30am  -  3 mph 1018mb 49f 52f
5:24am  -  3 mph 1018mb 49f 51f
5:18am  -  6 mph 1018mb 49f 51f
5:12am 2 5 mph 1018mb 49f 51f
5:06am 1 3 mph 1018.1mb 49f 51f
5:00am 2 3 mph 1018.2mb 49f 51f
4:36am  -  2 mph 1018.4mb 49f 51f
4:30am 1 2 mph 1018.4mb 49f 51f
4:24am 1 3 mph 1018.5mb 49f 51f
4:18am 1 2 mph 1018.5mb 49f 51f
4:12am 1 3 mph 1018.5mb 49f 51f
4:06am 1 2 mph 1018.6mb 49f 51f
4:00am 1 2 mph 1018.7mb 49f 51f
3:36am  -  2 mph 1018.8mb 49f 51f
3:30am  -  1 mph 1018.9mb 49f 51f
3:24am  -  1 mph 1019mb 49f 52f
3:18am  -  1 mph 1019mb 49f 52f
3:12am  -  1 mph 1019mb 49f 52f
3:06am  -  2 mph 1019.1mb 49f 52f
3:00am 1 3 mph 1019.1mb 49f 52f
2:36am 3 5 mph 1019.2mb 49f 52f
2:30am 2 5 mph 1019.2mb 49f 52f
2:24am 1 3 mph 1019.2mb 49f 51f
2:18am 1 2 mph 1019.3mb 49f 51f
2:12am  -  2 mph 1019.3mb 49f 51f
2:06am 1 2 mph 1019.3mb 49f 51f
2:00am 2 3 mph 1019.4mb 49f 51f
1:24am  -  mph 1019.4mb 49f -
1:18am  -  mph 1019.4mb 49f -
1:12am  -  mph 1019.5mb 49f -
1:06am  -  mph 1019.5mb 49f -
1:00am  -  mph 1019.5mb 49f -
12:36am 2 3 mph 1019.7mb 49f 50f
12:30am  -  1 mph 1019.8mb 49f 50f
12:24am  -  mph 1019.9mb 49f 50f
12:18am  -  2 mph - - 50f
12:12am 1 2 mph - - 50f
12:06am  -  1 mph - - 50f
12:00am  -  1 mph - - 50f
Sun 03/29 11:18pm  -  mph 1020.3mb 49f -
10:36pm 1 6 mph 1020.5mb 49f 50f
10:30pm 6 7 mph 1020.6mb 49f 50f
10:24pm 6 7 mph 1020.7mb 49f 50f
10:18pm 6 8 mph 1020.6mb 49f 50f
10:12pm 7 8 mph 1020.6mb 49f 50f
10:06pm 6 8 mph 1020.6mb 49f 50f
10:00pm 5 7 mph 1020.6mb 49f 50f
9:36pm  -  1 mph 1020.5mb 49f 51f
9:30pm  -  2 mph 1020.4mb 49f 51f
9:24pm 2
mph
1020.4mb 49f 51f
9:18pm  -  1 mph 1020.4mb 49f 51f
9:12pm  -  1 mph 1020.3mb 49f 51f
9:06pm  -  2 mph 1020.4mb 49f 52f
9:00pm 1 2 mph 1020.4mb 49f 52f
8:36pm 2 5 mph 1020.3mb 49f 51f
8:30pm  -  2 mph 1020.3mb 49f 51f
8:24pm  -  2 mph 1020.4mb 49f 52f
8:18pm  -  2 mph 1020.4mb 49f 52f
8:12pm  -  1 mph 1020.4mb 49f 52f
8:06pm  -  3 mph 1020.4mb 49f 51f
8:00pm  -  1 mph 1020.5mb 49f 52f
7:36pm  -  1 mph 1020.7mb 49f 52f
7:30pm  -  1 mph 1020.7mb 49f 52f
7:24pm  -  2 mph 1020.7mb 49f 52f
7:18pm 1 2 mph 1020.8mb 49f 53f
7:12pm  -  mph 1020.8mb 49f 53f
7:06pm  -  1 mph 1020.8mb 49f 53f
7:00pm  -  3 mph 1020.9mb 49f 53f
6:36pm  -  3 mph 1021mb 49f 53f
6:30pm  -  1 mph 1021.1mb 49f 54f
6:24pm  -  3 mph 1021.1mb 49f 54f
6:18pm 1 3 mph 1021.1mb 49f 53f
6:12pm 1 3 mph 1021.2mb 49f 53f
6:06pm  -  2 mph 1021.2mb 49f 54f
6:00pm  -  1 mph 1021.3mb 49f 54f
5:36pm 3 5 mph 1021.4mb 49f 53f
5:30pm 2 5 mph 1021.5mb 49f 53f
5:24pm 2 5 mph 1021.5mb 49f 53f
5:18pm 1 5 mph 1021.5mb 49f 53f
5:12pm 3 5 mph 1021.5mb 49f 53f
5:06pm 3 5 mph 1021.6mb 49f 53f
5:00pm 2 3 mph 1021.6mb 49f 53f
4:24pm  -  mph 1021.8mb 49f -
4:18pm  -  mph 1021.8mb 49f -
4:12pm  -  mph 1021.9mb 49f -
4:06pm  -  mph 1021.9mb 49f -
4:00pm  -  mph 1021.9mb 49f -
3:36pm 2 3 mph 1021.9mb 49f 53f
3:30pm 2 5 mph 1021.9mb 49f 53f
3:24pm 3 6 mph 1021.9mb 49f 53f
3:18pm 3 7 mph 1022mb 49f 53f
3:12pm 2 5 mph 1022mb 49f 53f
3:06pm 3 8 mph 1022mb 49f 54f
3:00pm 5 8 mph 1022mb 49f 54f
2:36pm 2 7 mph 1022.1mb 49f 54f
2:30pm 5 7 mph 1022.1mb 49f 54f
2:24pm 3 6 mph 1022.1mb 49f 54f
2:18pm 3 7 mph 1022.1mb 49f 54f
2:12pm 6 8 mph 1022.2mb 49f 54f
2:06pm 6 10 mph 1022.2mb 49f 54f
2:00pm 7 11 mph 1022.2mb 49f 54f
1:54pm 6 9 mph 1022.2mb 49f 53f
1:48pm 6 11 mph 1022.2mb 49f 53f
1:36pm 6 11 mph 1022.2mb 49f 53f
1:30pm 8 11 mph 1022.2mb 49f 54f
1:24pm 8 13 mph 1022.2mb 49f 53f
1:18pm 5 14 mph 1022.1mb 49f 53f
1:12pm 7 13 mph 1022.1mb 49f 53f
1:06pm 6 14 mph 1022.1mb 49f 53f
1:00pm 6 14 mph 1022.1mb 49f 53f
12:54pm 8 14 mph 1022mb 49f 53f
12:48pm 6 10 mph 1022.1mb 49f 53f
12:36pm 9 13 mph 1022.1mb 49f 53f
12:30pm 8 11 mph 1022.2mb 49f 53f
12:24pm 9 14 mph - - 53f
12:18pm 10 14 mph 1022.2mb 49f 53f
12:12pm 10 17 mph 1022.2mb 49f 53f
12:06pm 10 15 mph 1022.2mb 49f 53f
12:00pm 10 14 mph 1022.2mb 49f 53f
11:54am 8 13 mph 1022.2mb 49f 53f
11:48am 8 13 mph 1022.2mb 49f 52f
11:36am 8 11 mph 1022.2mb 49f 52f
11:30am 8 13 mph 1022.2mb 49f 52f
11:24am 7 11 mph 1022.3mb 49f 52f
11:18am 8 11 mph 1022.4mb 49f 52f
11:12am 8 13 mph 1022.4mb 49f 52f
11:06am 7 11 mph - - 52f
11:00am 8 14 mph - - 52f
10:54am 9 11 mph 1022.5mb 49f 52f
10:48am 7 16 mph 1022.4mb 49f 52f
10:36am 8 14 mph 1022.3mb 49f 52f
10:30am 8 14 mph 1022.3mb 49f 52f
10:24am 10 15 mph 1022.2mb 49f 52f
10:18am 10 14 mph 1022.1mb 49f 52f
10:12am 9 13 mph - - 52f
10:06am 9 14 mph 1022.1mb 49f 52f
10:00am 8 13 mph 1022.1mb 49f 52f
9:54am 8 14 mph 1022.1mb 49f 52f
9:48am 8 15 mph 1022.2mb 49f 52f
9:36am 8 14 mph 1022.3mb 49f 52f
9:30am 9 16 mph 1022.2mb 49f 52f
9:24am 10 15 mph - - 52f
9:18am 11 20 mph 1022.1mb 49f 52f
9:12am 10 16 mph 1022.1mb 49f 51f
9:06am 10 15 mph 1022mb 49f 51f
9:00am 10 15 mph 1022mb 49f 51f
8:54am 8 15 mph 1022.1mb 49f 51f
8:48am 9 14 mph 1022.1mb 49f 51f
8:36am 9 13 mph 1022.1mb 49f 51f
8:30am 9 13 mph 1022.1mb 49f 51f
8:24am 5 8 mph 1022.1mb 49f 50f
8:18am 8 10 mph 1022.1mb 49f 51f
8:12am 9 11 mph 1022.1mb 49f 50f
8:06am 8 11 mph 1022.1mb 49f 50f
8:00am 7 9 mph 1022.1mb 49f 50f
7:54am 7 10 mph 1022.2mb 49f 50f
7:48am 7 10 mph 1022.3mb 49f 50f
7:24am  -  mph 1022.4mb 49f -
7:18am  -  mph 1022.6mb 49f -
7:12am  -  mph 1022.8mb 49f -
6:54am  -  mph 1022.7mb 49f -
6:48am  -  mph 1022.6mb 49f -
6:36am 7 10 mph 1022.8mb 49f 51f
6:30am 6 7 mph 1022.9mb 49f 51f
6:24am 6 9 mph 1023mb 49f 51f
6:18am 5 8 mph 1022.9mb 49f 51f
6:12am 5 8 mph 1022.8mb 49f 51f
6:06am 3 9 mph 1022.8mb 49f 51f
6:00am 5 7 mph 1022.7mb 49f 51f
5:54am 6 11 mph 1022.6mb 49f 51f
5:48am 8 11 mph 1022.5mb 49f 51f
5:36am 9 13 mph 1022.5mb 49f 51f
5:30am 9 13 mph 1022.5mb 49f 51f
5:24am 7 11 mph 1022.5mb 49f 51f
5:18am 8 11 mph 1022.5mb 49f 51f
5:12am 10 13 mph 1022.6mb 49f 51f
5:06am 8 14 mph 1022.8mb 49f 51f
5:00am 8 13 mph 1022.9mb 49f 51f
4:54am 7 11 mph 1022.9mb 49f 51f
4:48am 6 10 mph 1023mb 49f 51f
Sat 03/28 10:30pm  -  mph 1025.9mb 49f -
10:24pm  -  mph 1025.9mb 49f -
10:18pm  -  mph 1025.9mb 49f -
10:12pm  -  mph 1026mb 49f -
10:06pm  -  mph 1026.1mb 49f -
10:00pm  -  mph 1025.9mb 49f -
9:54pm  -  mph 1025.9mb 49f -
9:48pm  -  mph 1025.8mb 49f -
9:36pm 1 2 mph 1025.6mb 49f 49f
9:30pm 1 2 mph 1025.6mb 49f 49f
9:24pm  -  1 mph 1025.5mb 49f 49f
9:18pm  -  1 mph 1025.5mb 49f 50f
9:12pm  -  2 mph 1025.6mb 49f 50f
9:06pm 2 3 mph - - 50f
9:00pm  -  1 mph - - 50f
8:54pm  -  2 mph 1025.6mb 49f 51f
8:48pm 2 3 mph 1025.6mb 49f 51f
8:36pm 2 3 mph 1025.6mb 49f 51f
8:30pm 2 3 mph 1025.6mb 49f 51f
8:24pm 2
mph
1025.6mb 49f 51f
8:18pm 2 3 mph 1025.6mb 49f 51f
8:12pm  -  1 mph 1025.6mb 49f 51f
8:06pm  -  1 mph 1025.6mb 49f 52f
8:00pm  -  1 mph 1025.6mb 49f 52f
7:54pm  -  1 mph 1025.7mb 49f 52f
7:48pm  -  1 mph 1025.7mb 49f 52f
7:36pm  -  2 mph 1025.6mb 49f 53f
7:30pm  -  2 mph 1025.6mb 49f 53f
7:24pm 1 2 mph 1025.6mb 49f 53f
7:18pm 1 3 mph 1025.6mb 49f 53f
7:12pm  -  3 mph 1025.6mb 49f 53f
7:06pm  -  6 mph 1025.6mb 49f 53f
7:00pm 3 8 mph 1025.8mb 49f 53f
6:54pm 5 9 mph 1025.7mb 49f 54f
6:48pm 7 9 mph 1025.6mb 49f 54f
6:36pm 5 8 mph 1025.8mb 49f 54f
6:30pm 5 8 mph 1025.8mb 49f 54f
6:24pm 6 7 mph 1025.8mb 49f 55f
6:18pm 2 3 mph 1025.8mb 49f 54f
6:12pm 1 2 mph 1025.8mb 49f 55f
6:06pm  -  1 mph 1025.9mb 49f 55f
6:00pm  -  mph 1025.9mb 49f 55f
5:54pm  -  mph 1025.9mb 49f 55f
5:48pm  -  1 mph 1025.9mb 49f 55f
5:36pm 1
mph
1026mb 49f 54f
5:30pm  -  1 mph 1025.9mb 49f 55f
5:24pm  -  mph 1026mb 49f 55f
5:18pm  -  mph 1026.1mb 49f 55f
5:12pm  -  1 mph 1026.2mb 49f 55f
5:06pm  -  1 mph 1026.2mb 49f 55f
5:00pm  -  1 mph 1026.2mb 49f 54f
4:54pm 1 2 mph 1026.2mb 49f 54f
4:48pm  -  mph 1026.2mb 49f 56f
4:36pm  -  1 mph 1026.2mb 49f 55f
4:30pm  -  1 mph 1026.2mb 49f 55f
4:24pm 1 2 mph 1026.2mb 49f 55f
4:18pm 2
mph
1026.2mb 49f 54f
4:12pm 2
mph
1026.3mb 49f 54f
4:06pm  -  1 mph 1026.3mb 49f 54f
4:00pm  -  2 mph 1026.3mb 49f 54f
3:54pm 2 3 mph 1026.3mb 49f 54f
3:48pm  -  3 mph 1026.4mb 49f 54f
3:36pm  -  3 mph 1026.3mb 49f 54f
3:30pm 3 5 mph 1026.4mb 49f 54f
3:24pm 3 6 mph 1026.4mb 49f 54f
3:18pm 5 6 mph 1026.3mb 49f 54f
3:12pm 7 9 mph 1026.3mb 49f 54f
3:06pm 6 8 mph 1026.4mb 49f 54f
3:00pm 3 5 mph 1026.5mb 49f 54f
2:54pm 7 10 mph 1026.5mb 49f 54f
2:48pm 1 8 mph 1026.4mb 49f 54f
2:36pm 9 11 mph 1026.6mb 49f 54f
2:30pm 10 14 mph 1026.7mb 49f 54f
2:24pm 8 13 mph 1026.8mb 49f 54f
2:18pm 7 11 mph 1026.7mb 49f 54f
2:12pm 8 11 mph 1026.7mb 49f 54f
2:06pm 10 14 mph 1026.7mb 49f 54f
2:00pm 11 14 mph 1026.8mb 49f 53f
1:54pm 11 15 mph 1026.9mb 49f 53f
1:48pm 13 18 mph 1027mb 49f 53f
1:36pm 14 18 mph 1027mb 49f 54f
1:30pm 13 17 mph 1027mb 49f 54f
1:24pm 14 20 mph 1026.9mb 49f 54f
1:18pm 18 23 mph 1026.9mb 49f 54f
1:12pm 16 22 mph 1026.8mb 49f 55f
1:06pm 17 23 mph 1026.7mb 49f 55f
1:00pm 13 17 mph 1026.6mb 49f 55f
12:54pm 11 21 mph 1026.5mb 49f 55f
12:48pm 15 21 mph 1026.3mb 49f 55f
12:36pm 10 16 mph 1025.9mb 49f 55f
12:30pm 13 18 mph 1025.9mb 49f 54f
12:24pm 7 13 mph 1025.9mb 49f 55f
12:18pm 9 15 mph 1026.1mb 49f 54f
12:12pm 8 17 mph 1026.3mb 49f 54f
12:06pm 8 13 mph 1026.3mb 49f 53f
12:00pm 11 18 mph 1026.3mb 49f 53f
11:54am 14 22 mph 1026.4mb 49f 53f
11:48am 10 21 mph 1026.3mb 49f 53f
11:36am 14 21 mph 1026.3mb 49f 52f
11:30am 16 22 mph 1026.1mb 49f 53f
11:24am 15 23 mph 1026mb 49f 53f
11:18am 14 21 mph 1026mb 49f 53f
11:12am 16 21 mph 1025.9mb 49f 53f
11:06am 16 22 mph 1025.7mb 49f 53f
11:00am 20 24 mph 1025.5mb 49f 52f
10:54am 15 21 mph 1025.3mb 49f 53f
10:48am 14 21 mph 1025.2mb 49f 53f
10:36am 14 20 mph 1025.1mb 49f 53f
10:30am 14 21 mph 1024.9mb 49f 53f
10:24am 13 20 mph 1024.7mb 49f 53f
10:18am 16 23 mph 1024.6mb 49f 53f
10:12am 16 23 mph 1024.6mb 49f 53f
10:06am 10 17 mph 1024.5mb 49f 53f
10:00am 10 14 mph 1024.4mb 49f 53f
9:54am 13 21 mph 1024.4mb 49f 52f
9:48am 15 20 mph 1024.3mb 49f 52f
9:36am 11 14 mph 1024.1mb 49f 52f
9:30am 8 13 mph 1023.9mb 49f 52f
9:24am 10 20 mph 1023.8mb 49f 52f
9:18am 7 15 mph 1023.7mb 49f 52f
9:12am 11 22 mph 1023.6mb 49f 51f
9:06am 15 21 mph 1023.4mb 49f 51f
9:00am 16 20 mph 1023.4mb 49f 51f
8:54am 13 16 mph 1023.3mb 49f 51f
8:48am 14 21 mph 1023.2mb 49f 51f
8:36am 7 15 mph - - 51f
8:30am 11 17 mph - - 51f
8:24am 10 20 mph - - 51f
8:18am 13 22 mph - - 51f
8:12am 14 24 mph 1022.2mb 49f 51f
8:06am 11 20 mph 1022mb 49f 51f
8:00am 14 22 mph 1021.9mb 49f 50f
7:54am 17 22 mph 1021.8mb 49f 50f
7:48am 13 20 mph 1021.7mb 49f 50f
7:24am  -  mph 1021.1mb 49f -
7:18am  -  mph 1020.9mb 49f -
7:12am  -  mph 1020.7mb 49f -
7:06am  -  mph 1020.6mb 49f -
7:00am  -  mph 1020.4mb 49f -
6:54am  -  mph 1020.1mb 49f -
6:48am  -  mph 1020mb 49f -
6:36am 20 30 mph 1019.6mb 49f 50f
6:30am 21 28 mph 1019.5mb 49f 50f
6:24am 20 24 mph 1019.4mb 49f 50f
6:18am 22 32 mph 1019.2mb 49f 50f
6:12am 22 33 mph 1019.1mb 49f 50f
6:06am 21 32 mph 1019mb 49f 50f
6:00am 21 29 mph 1018.8mb 49f 50f
5:54am 24 32 mph 1018.7mb 49f 50f
5:48am 23 30 mph 1018.6mb 49f 50f
5:36am 20 26 mph 1018.3mb 49f 50f
5:30am 16 32 mph 1018.1mb 49f 50f
5:24am 18 28 mph 1017.9mb 49f 50f
5:18am 20 25 mph 1017.8mb 49f 50f
5:12am 17 31 mph 1017.6mb 48f 50f
5:06am 24 31 mph 1017.4mb 48f 50f
5:00am 24 30 mph 1017.3mb 48f 50f
4:54am 20 28 mph 1017.3mb 48f 49f
4:48am 20 28 mph 1017.3mb 48f 49f
4:36am 20 33 mph 1017.1mb 48f 50f
4:30am 22 32 mph 1016.9mb 48f 50f
4:24am 22 32 mph 1016.7mb 48f 50f
4:18am 20 31 mph 1016.6mb 48f 49f
4:12am 26 33 mph 1016.4mb 48f 49f
4:06am 26 39 mph 1016.4mb 48f 49f
4:00am 18 38 mph 1016.4mb 48f 49f
3:54am 23 30 mph 1016.3mb 48f 49f
3:48am 22 29 mph 1016.5mb 48f 49f
3:36am 21 25 mph 1016.8mb 48f 49f
3:30am 20 28 mph 1016.8mb 48f 49f
3:24am 17 23 mph 1016.9mb 48f 49f
3:18am 17 29 mph 1016.8mb 48f 49f
3:12am 21 32 mph 1016.5mb 48f 49f
3:06am 24 43 mph 1016.4mb 48f 49f
3:00am 24 31 mph 1016.4mb 48f 49f
2:54am 25 30 mph 1016.4mb 48f 49f
2:48am 23 30 mph 1016.3mb 48f 49f
2:36am 18 28 mph 1016.3mb 48f 50f
2:30am 22 28 mph 1016.3mb 48f 50f
2:24am 22 29 mph 1016.5mb 48f 50f
2:18am 17 28 mph 1016.5mb 48f 50f
2:12am 18 26 mph 1016.4mb 48f 50f
2:06am 24 33 mph 1016.2mb 48f 50f
2:00am 24 31 mph 1016.1mb 48f 50f
1:36am 17 23 mph 1016.1mb 48f 50f
1:30am 13 18 mph 1016.2mb 48f 51f
1:24am 13 18 mph 1016.1mb 48f 51f
1:18am 13 21 mph 1015.9mb 48f 51f
1:12am 11 17 mph 1015.9mb 48f 51f
1:06am 11 17 mph 1015.9mb 48f 50f
1:00am 10 22 mph 1015.8mb 48f 51f
12:54am 17 23 mph 1015.7mb 48f 51f
12:48am 16 25 mph 1015.6mb 48f 51f
12:36am 23 31 mph 1015.5mb 48f 51f
12:30am 24 40 mph 1015.3mb 48f 51f
12:24am 26 37 mph 1015.2mb 48f 51f
12:18am 29 36 mph 1015mb 48f 51f
12:12am 24 33 mph 1014.7mb 48f 51f
12:06am 22 32 mph 1014.7mb 48f 52f
12:00am 23 30 mph - - 52f
Fri 03/27 11:54pm 24 37 mph - - 52f
11:48pm 22 29 mph 1014.4mb 48f 52f
11:36pm 20 28 mph - - -
11:30pm 20 31 mph 1014.2mb 48f -
11:24pm 16 23 mph - - -
11:18pm 17 24 mph - - -
11:12pm 16 23 mph 1014.3mb 48f -
11:06pm 14 22 mph - - -
11:00pm 16 24 mph 1014.3mb 48f -
10:54pm 15 21 mph - - -
10:48pm 9 25 mph 1014mb 49f -
10:36pm 9 23 mph 1013.7mb 49f 53f
10:30pm 8 16 mph 1013.6mb 49f 52f
10:24pm 9 15 mph 1013.4mb 49f 52f
10:18pm 5 9 mph 1013.3mb 49f 52f
10:12pm 1 8 mph 1013.1mb 49f 52f
10:06pm 5 10 mph 1013mb 49f 53f
10:00pm 8 14 mph 1013mb 49f 53f
9:36pm 9 18 mph 1013.3mb 49f 52f
9:30pm 7 16 mph 1013.4mb 49f 52f
9:24pm 8 18 mph 1013.5mb 49f 52f
9:18pm 8 15 mph 1013.6mb 49f 53f
9:12pm 9 18 mph 1013.5mb 49f 53f
9:06pm 8 15 mph 1013.4mb 49f 54f
9:00pm 7 13 mph 1013.3mb 49f 53f
8:54pm 2 6 mph 1013.1mb 49f 53f
8:48pm 2 3 mph 1012.9mb 49f 53f
8:36pm  -  2 mph 1012.8mb 49f 53f
8:30pm 1 2 mph 1012.7mb 49f 53f
8:24pm  -  1 mph 1012.6mb 49f 53f
8:18pm 1 3 mph 1012.5mb 49f 53f
8:12pm  -  3 mph - - 53f
8:06pm 2 3 mph 1012.3mb 49f 53f
8:00pm 2 3 mph 1012.3mb 49f 53f
7:54pm 3 5 mph 1012.3mb 49f 53f
7:48pm 3 5 mph 1012.2mb 49f 53f
7:36pm 1
mph
1012.2mb 49f 54f
7:30pm  -  1 mph 1012mb 49f 54f
7:24pm  -  1 mph 1012.1mb 49f 54f
7:18pm 2 3 mph 1012.1mb 49f 54f
7:12pm 3 5 mph 1012.1mb 49f 54f
7:06pm 5
mph
1012.1mb 49f 55f
7:00pm 3
mph
1012.1mb 49f 55f
6:54pm 2 6 mph - - 55f
6:48pm 6 7 mph 1012.3mb 49f 55f
6:36pm 5 6 mph 1012.4mb 49f 55f
6:30pm 5 6 mph 1012.4mb 49f 55f
6:24pm 3
mph
1012.4mb 49f 56f
6:18pm 2 5 mph 1012.4mb 49f 56f
6:12pm 6 7 mph 1012.4mb 49f 56f
6:06pm 6 7 mph 1012.4mb 49f 57f
6:00pm 6 7 mph 1012.5mb 49f 57f
5:54pm 7 8 mph 1012.5mb 49f 57f
5:48pm 6 7 mph 1012.5mb 49f 57f
5:36pm 6 7 mph 1012.7mb 49f 57f
5:30pm 3 6 mph 1012.7mb 49f 57f
5:24pm 2 3 mph - - 57f
5:18pm 1 2 mph 1012.7mb 49f 57f
5:12pm  -  2 mph 1012.7mb 49f 57f
5:06pm  -  1 mph 1012.8mb 49f 57f
5:00pm  -  1 mph 1012.9mb 49f 56f
4:54pm  -  2 mph 1012.9mb 49f 57f
4:48pm  -  2 mph 1012.8mb 49f 58f
4:36pm 2 3 mph 1013mb 49f 58f
4:30pm  -  2 mph 1013.1mb 49f 59f
4:24pm 1 3 mph 1013.2mb 49f 58f
4:18pm 3
mph
1013.3mb 49f 58f
4:12pm 3 6 mph 1013.3mb 49f 58f
4:06pm 5 6 mph 1013.4mb 49f 58f
4:00pm 5 7 mph 1013.4mb 49f 58f
3:54pm 1 3 mph - - 58f
3:48pm  -  2 mph 1013.6mb 49f 57f
3:36pm 2 3 mph 1013.7mb 49f 56f
3:30pm 2 3 mph 1013.8mb 49f 56f
3:24pm 2 6 mph 1013.9mb 49f 57f
3:18pm 2 6 mph 1014mb 49f 57f
3:12pm  -  3 mph 1014.1mb 49f 57f
3:06pm 2 5 mph 1014.3mb 49f 57f
3:00pm 3 6 mph 1014.3mb 49f 57f
2:54pm 3 6 mph 1014.4mb 49f 56f
2:48pm 3 5 mph 1014.5mb 49f 56f
2:36pm 5 6 mph 1015mb 49f 55f
2:30pm 3 8 mph 1015mb 49f 55f
2:24pm 6 9 mph 1015mb 49f 55f
2:18pm 8 11 mph 1015.1mb 49f 55f
2:12pm 9 10 mph 1015.3mb 49f 55f
2:06pm 7 10 mph 1015.3mb 49f 54f
2:00pm 6 10 mph 1015.3mb 49f 55f
1:54pm 6 9 mph 1015.5mb 49f 55f
1:48pm 6 11 mph 1015.5mb 48f 54f
1:36pm 6 8 mph 1015.6mb 48f 53f
1:30pm 5 6 mph 1015.5mb 48f 54f
1:24pm 5 6 mph 1015.5mb 48f 53f
1:18pm 3 6 mph 1015.6mb 48f 53f
1:12pm 5 6 mph 1015.7mb 48f 53f
1:06pm 5 7 mph 1015.8mb 48f 53f
1:00pm 6 7 mph 1016mb 48f 53f
12:54pm 6 8 mph 1016.1mb 48f 53f
12:48pm 6 7 mph 1016.1mb 48f 53f
12:36pm 3 7 mph 1016.1mb 48f 53f
12:30pm 5 6 mph 1016.1mb 48f 53f
12:24pm 2 5 mph 1016.2mb 48f 53f
12:18pm 3 5 mph 1016.2mb 48f 52f
12:12pm 5 6 mph - - 52f
12:06pm 5 7 mph 1016.4mb 48f 52f
12:00pm 6 7 mph 1016.5mb 48f 51f
11:54am 6 8 mph 1016.3mb 48f 51f
11:48am 7 8 mph 1016.5mb 48f 52f
11:36am 5 6 mph 1016.5mb 48f 52f
11:30am 2 5 mph 1016.5mb 48f 52f
11:24am 2 5 mph 1016.5mb 48f 52f
11:18am 3 6 mph 1016.6mb 48f 52f
11:12am 2 5 mph 1016.6mb 49f 51f
11:06am 3 5 mph 1016.8mb 49f 51f
11:00am 3 5 mph 1016.8mb 49f 51f
10:54am 3 6 mph - - 51f
10:48am 5 6 mph 1016.8mb 49f 51f
10:36am 6
mph
1016.8mb 48f 51f
10:30am 6 7 mph 1016.8mb 48f 51f
10:24am 6
mph
1016.8mb 48f 51f
10:18am 5 6 mph 1016.7mb 48f 51f
10:12am 6
mph
1016.7mb 48f 51f
10:06am 5 6 mph 1016.6mb 48f 51f
10:00am 6 7 mph 1016.6mb 48f 51f
9:36am 1 2 mph 1016.6mb 48f 51f
9:30am 1 3 mph 1016.6mb 48f 51f
9:24am 2 3 mph 1016.5mb 48f 51f
9:18am 1 2 mph 1016.5mb 48f 51f
9:12am  -  1 mph 1016.5mb 48f 51f
9:06am  -  1 mph 1016.3mb 48f 50f
9:00am  -  1 mph 1016.3mb 48f 50f
8:54am  -  1 mph 1016.3mb 48f 49f
8:48am  -  1 mph 1016.4mb 48f 48f
8:36am  -  1 mph 1016.5mb 48f 47f
8:30am  -  1 mph 1016.5mb 48f 47f
8:24am  -  1 mph 1016.5mb 48f 47f
8:18am  -  1 mph 1016.5mb 48f 48f
8:12am  -  2 mph 1016.5mb 48f 47f
8:06am 2
mph
1016.5mb 48f 47f
8:00am 1 2 mph 1016.5mb 48f 46f
7:54am 2 3 mph 1016.6mb 48f 46f
7:48am 3
mph
1016.6mb 48f 46f
7:36am  -  2 mph 1016.8mb 48f 46f
7:30am 1
mph
1016.8mb 48f 46f
7:24am 1
mph
1016.7mb 48f 46f
7:18am 1
mph
1016.7mb 48f 46f
7:12am  -  mph 1016.7mb 48f 46f
7:06am  -  mph 1016.7mb 48f 46f
7:00am  -  mph 1016.8mb 48f 46f
6:54am 1 2 mph 1016.9mb 48f 46f
6:48am 2 3 mph 1017mb 48f 47f
6:36am  -  mph 1016.9mb 48f 47f
6:30am  -  1 mph 1017mb 48f 47f
6:24am 2 3 mph 1016.9mb 48f 47f
6:18am 2 3 mph 1016.9mb 48f 47f
6:12am  -  2 mph 1017mb 48f 47f
6:06am 2 3 mph 1016.9mb 48f 47f
6:00am 1 3 mph 1016.9mb 48f 46f
5:54am 2
mph
1017mb 48f 46f
5:48am  -  1 mph 1017mb 48f 46f
5:36am  -  1 mph 1017.1mb 48f 47f
5:30am  -  mph 1017.3mb 48f 47f
5:24am  -  1 mph 1017.5mb 48f 48f
5:18am  -  2 mph 1017.4mb 48f 48f
5:12am  -  1 mph 1017.5mb 48f 48f
5:06am  -  1 mph 1017.4mb 48f 48f
5:00am 2
mph
1017.5mb 48f 46f
4:54am  -  2 mph 1017.5mb 48f 47f
4:48am 2 3 mph 1017.6mb 48f 46f
4:36am 2
mph
1017.8mb 48f 47f
4:30am  -  2 mph 1017.9mb 48f 46f
4:24am  -  2 mph 1017.9mb 48f 47f
4:18am  -  2 mph 1018mb 48f 47f
4:12am 1 3 mph 1018mb 48f 47f
4:06am 1 2 mph 1018mb 48f 47f
4:00am  -  1 mph 1018mb 48f 47f
3:54am  -  1 mph 1018.1mb 48f 47f
3:48am  -  1 mph 1018.2mb 48f 47f
3:36am 3
mph
1018.3mb 48f 46f
3:30am 2 3 mph 1018.3mb 48f 47f
3:24am  -  1 mph 1018.5mb 48f 49f
3:18am  -  1 mph 1018.6mb 48f 49f
3:12am  -  1 mph 1018.7mb 48f 48f
3:06am  -  1 mph 1018.8mb 48f 48f
3:00am 1 2 mph 1018.8mb 48f 47f
2:54am 2
mph
1019mb 48f 47f
2:48am 1 2 mph 1019.1mb 48f 48f
2:36am  -  mph 1019.2mb 48f 47f
2:30am  -  mph 1019.3mb 48f 47f
2:24am  -  mph 1019.4mb 48f 47f
2:18am  -  1 mph 1019.5mb 48f 48f
2:12am  -  1 mph 1019.6mb 48f 47f
2:06am  -  1 mph 1019.7mb 48f 48f
2:00am  -  1 mph 1019.7mb 48f 48f
1:54am  -  mph 1019.8mb 48f 48f
1:48am  -  1 mph 1019.9mb 48f 48f
1:36am  -  1 mph 1020mb 48f 48f
1:30am  -  1 mph 1020.1mb 48f 48f
1:24am  -  1 mph 1020.1mb 48f 48f
1:18am 1 2 mph 1020.3mb 48f 48f
1:12am 1
mph
1020.3mb 48f 48f
1:06am  -  1 mph 1020.3mb 48f 49f
1:00am 1 2 mph 1020.4mb 48f 49f
12:54am  -  1 mph 1020.5mb 48f 49f
12:48am  -  1 mph 1020.6mb 48f 49f
12:36am  -  1 mph 1020.7mb 48f 49f
12:30am  -  1 mph 1020.8mb 48f 49f
12:24am  -  mph 1020.8mb 48f 49f
12:18am  -  mph 1020.8mb 48f 49f
12:12am  -  mph 1020.8mb 48f 49f
12:06am  -  mph 1020.8mb 48f 49f
12:00am  -  mph 1020.9mb 48f 49f
Thu 03/26 11:54pm  -  1 mph 1020.9mb 48f 49f
11:48pm  -  1 mph 1020.9mb 48f 49f
11:36pm 1 2 mph - - 49f
11:30pm 2
mph
- - 49f
11:24pm 1 2 mph - - 49f
11:18pm  -  1 mph 1021.1mb 48f 49f
11:12pm  -  mph - - 49f
11:06pm  -  mph - - 49f
11:00pm  -  1 mph - - 49f
10:54pm  -  mph 1021.2mb 48f 49f
10:48pm  -  mph 1021.3mb 48f 49f
10:36pm 2
mph
1021.4mb 48f 50f
10:30pm 1 2 mph 1021.3mb 48f 50f
10:24pm 2 3 mph 1021.4mb 48f 50f
10:18pm 2
mph
1021.4mb 48f 50f
10:12pm 2
mph
1021.4mb 48f 50f
10:06pm 1 2 mph 1021.5mb 48f 50f
10:00pm 1
mph
1021.5mb 48f 51f
9:36pm 2 5 mph 1021.5mb 48f 51f
9:30pm 3 5 mph 1021.5mb 48f 51f
9:24pm 2 5 mph 1021.5mb 48f 51f
9:18pm 3 5 mph 1021.5mb 48f 51f
9:12pm 2 5 mph 1021.4mb 48f 51f